Location: Wagman Observatory
(40.6260°N, 79.8130°W)
Time: 02:39:00
(UTC-05:00)

Daily predictions for brighter satellites

Satellite Brightness Start Highest point End
(mag) Time Altitude Azimuth Time Altitude Azimuth Time Altitude Azimuth
Cosmos 1844 Rocket 4.3 04:23:32 28° ESE 04:24:23 29° ESE 04:29:07 10° NE
Lacrosse 5 3.6 04:33:47 28° ESE 04:33:47 28° ESE 04:36:20 10° ESE
COSMOS 2406 4.5 04:48:46 29° NNE 04:50:37 36° ENE 04:55:48 10° SE
DELTA 2 R/B (1) 4.1 04:52:14 56° ESE 04:52:14 56° ESE 04:56:37 10° E
USA 234 4.4 04:48:37 10° NE 04:52:58 28° N 04:52:58 28° N
Nadezhda 1 Rocket 4.4 04:55:51 54° S 04:55:51 54° S 05:00:37 10° S
CZ-4C R/B 3.7 04:55:29 29° N 04:58:56 47° NE 05:06:32 10° ESE
Tiangong 2 4.2 05:11:25 13° SE 05:11:25 13° SE 05:12:28 10° ESE
CENTAUR R/B 4.0 05:16:43 24° NNW 05:16:43 24° NNW 05:20:59 10° NNE
BREEZE-M DEB (TANK) 4.3 05:25:04 16° NE 05:25:04 16° NE 05:25:58 10° NE
Cosmos 1315 Rocket 4.3 05:21:08 20° NNE 05:23:19 34° ENE 05:26:58 10° SE
Feng Yun 1-1 Rocket 4.4 05:20:59 10° NNE 05:26:25 69° ESE 05:31:46 10° S
Cosmos 2263 Rocket 4.4 05:31:07 11° N 05:31:07 11° N 05:31:27 10° N
EO 1 Del DPAF 4.3 05:25:10 10° SE 05:28:48 43° ENE 05:30:23 27° NNE
SKYMED 2 3.6 05:27:21 10° SSE 05:31:40 79° ENE 05:32:51 48° N
Cosmos 2181 Rocket 4.1 05:25:47 10° N 05:32:05 78° E 05:38:16 10° S
Cosmos 371 Rocket 4.3 05:36:44 13° N 05:40:51 46° ENE 05:45:33 10° SE
Landsat 4 3.5 05:40:20 10° S 05:44:09 79° WSW 05:44:12 79° W
ATLAS CENTAUR R/B 3.5 05:41:47 13° N 05:44:17 22° NE 05:47:37 10° E
Cosmos 2278 Rocket 3.0 05:42:54 10° S 05:48:22 52° ESE 05:53:51 10° NNE
Cosmos 614 Rocket 3.8 05:43:59 10° SSW 05:48:59 66° WNW 05:54:04 10° NNE
Timation 1 Rocket 4.4 05:43:24 10° SSW 05:49:25 83° ESE 05:55:27 10° NNE
GPS 2-04 Rocket1 4.2 05:53:22 22° SSW 05:55:16 32° SSE 05:59:06 10° ESE
Cosmos 1328 4.1 05:51:50 10° N 05:55:50 66° E 05:59:47 10° SSE
Cosmos 1400 Rocket 3.6 05:56:54 36° SW 05:56:54 36° SW 05:59:51 10° SSW
Abrixas rocket 3.8 05:56:23 24° N 05:56:32 24° NNE 05:59:15 10° ENE
CZ-2C R/B 2.2 05:53:30 10° NNE 05:58:07 88° E 06:02:48 10° SSW
IDEFIX/ARIANE 42P 2.5 05:52:58 10° N 05:58:13 68° WNW 06:03:26 10° SSW
Cosmos 1076 Rocket 3.4 05:57:33 22° NNW 06:00:14 64° W 06:04:28 10° S
COSMOS 2455 3.9 06:00:51 24° NW 06:00:51 24° NW 06:05:34 10° N
DMSP B5D1-3 4.4 05:56:05 10° SSE 06:01:13 85° WSW 06:06:22 10° NNW
SL-08 ROCKET BODY 4.3 06:01:50 10° SSW 06:07:34 59° W 06:13:24 10° N
Cosmos 1844 Rocket 3.1 06:05:21 24° WSW 06:08:05 38° WNW 06:13:17 10° N
BREEZE-M DEB (TANK) 3.9 06:09:41 23° NW 06:12:01 29° NNW 06:14:54 10° NE
Okean 3 Rocket 3.8 06:09:16 19° NNW 06:12:03 44° W 06:16:14 10° SSW
Lacrosse 5 2.9 06:13:00 24° W 06:14:08 27° WSW 06:18:18 10° S
Okean-O 3.0 06:10:06 10° N 06:14:15 40° WNW 06:18:23 10° SW
Cosmos 1766 Rocket 3.4 06:11:32 10° N 06:15:55 78° W 06:20:19 10° S
Meteor 1-11 4.4 06:11:11 10° N 06:16:59 82° E 06:22:48 10° S
Cosmos 1844 4.1 06:13:25 10° SW 06:18:50 42° WNW 06:24:15 10° N
Meteor 1-16 Rocket 4.1 06:13:27 10° SSW 06:19:06 69° W 06:24:36 10° N
COSMO-SKYMED 1 3.4 06:16:03 10° SSW 06:19:51 30° W 06:21:27 23° WNW
Cosmos 2208 Rocket 4.2 06:14:24 10° NNW 06:19:54 78° ENE 06:25:20 10° SSE
Thor Agena Rocket 4.0 06:15:04 10° SSE 06:20:13 65° ENE 06:25:27 10° N
CZ-4 R/B 3.1 06:23:04 10° NNE 06:26:54 36° E 06:30:37 10° SSE
Cosmos 1703 3.5 06:24:47 10° N 06:28:45 73° E 06:32:41 10° SSE
Cosmos 1140 Rocket 4.3 06:25:55 10° WSW 06:30:14 27° WNW 06:34:36 10° N
Cosmos 2082 Rocket 3.2 06:25:19 10° NNW 06:30:43 45° ENE 06:36:04 10° SE
FAST Rocket 4.0 06:28:24 10° SSW 06:30:58 60° W 06:34:09 10° N
Cosmos 2184 Rocket 4.0 06:25:50 10° SSW 06:32:00 67° W 06:38:18 10° N
Cosmos 1850 Rocket 4.1 06:27:57 10° SW 06:33:04 52° WNW 06:38:15 10° N
Cosmos 332 Rocket 4.1 06:29:24 10° NNW 06:34:07 47° WSW 06:38:45 10° S
COSMOS 2406 3.9 06:30:53 15° NW 06:34:47 32° WSW 06:39:43 10° SSW
Cosmos 1842 Rocket 4.0 06:32:21 10° S 06:36:47 69° E 06:41:16 10° NNE
MSX 3.9 06:31:29 10° N 06:37:01 52° WNW 06:42:34 10° SW
DELTA 2 R/B (1) 4.0 06:33:00 16° W 06:37:19 56° SSW 06:42:47 10° ESE
Shenzhou-11 Module 1.9 06:36:31 20° W 06:38:23 67° NNW 06:41:23 10° ENE
Cosmos 304 Rocket 4.2 06:39:13 10° NNW 06:43:59 64° ENE 06:48:44 10° SSE
Cosmos 1610 Rocket 4.5 06:40:15 10° SSW 06:46:32 74° W 06:52:55 10° N
Tiangong 2 1.5 06:44:05 10° WSW 06:47:14 63° SSE 06:50:25 10° ENE
CZ-4C R/B 3.4 06:40:42 10° NW 06:47:39 45° WSW 06:55:11 10° S
Cosmos 1484 Rocket 2.7 06:44:38 10° N 06:48:18 58° WNW 06:51:59 10° SSW
SL-27 R/B 2.5 06:45:31 10° NNW 06:49:10 89° SW 06:52:48 10° SSE
Cosmos 2297 4.1 06:46:08 10° SSW 06:51:50 71° ESE 06:57:32 10° NNE
Cosmos 468 Rocket 4.0 06:46:53 10° NNW 06:52:05 83° WSW 06:57:18 10° SSE
Cosmos 1726 3.4 06:49:08 10° SSE 06:52:42 45° E 06:56:17 10° NNE
Cosmos 1626 2.9 06:50:01 10° NNW 06:53:19 30° W 06:56:36 10° SSW
Nadezhda 3 Rocket 4.1 06:47:11 10° N 06:53:35 88° W 06:59:53 10° S
USA 229 DEB 3.7 06:47:33 10° SW 06:54:18 77° NW 07:01:16 10° NNE
USA 229 3.7 06:47:39 10° SW 06:54:24 78° NW 07:01:21 10° NNE
Cosmos 1570 Rocket 4.5 06:54:13 10° NNW 06:59:06 41° WSW 07:03:57 10° S
Cosmos 1315 Rocket 4.4 06:57:12 10° NW 06:59:33 15° W 07:01:55 10° SW
Milstar 3 4.2 06:55:38 10° WSW 07:01:30 30° S 07:07:30 10° ESE
Cosmos 841 Rocket 4.3 06:56:41 10° N 07:01:45 51° ENE 07:06:43 10° SE
Cosmos 1174 3.6 07:01:28 10° NNW 07:05:38 85° ENE 07:09:01 10° SSE
Cosmos 1833 Rocket 2.8 07:00:08 10° NNW 07:05:49 90° WSW 07:11:28 10° SSE
AQUARIUS 4.2 07:02:01 10° N 07:06:27 57° WNW 07:10:51 10° SSW
Cosmos-2242 4.3 07:05:56 10° WSW 07:09:06 20° WNW 07:12:17 10° NNW
